[[{"header":{"parameterUnit":"m.s-1","parameterCategory":1,"la1":30.2991,"la2":30.254,"lo1":-89.0895,"lo2":-89.0444,"dy":0.0017,"dx":0.0017,"nx":28,"ny":28,"refTime":"2023-03-19T21:00:00:Z","depth":0,"parameterNumber":2,"parameterNumberName":"U-component_of_WINDS"},"data":[0,0,0,0,0,0,0,0,0,0,0,0,0,0,0,0,0,0,0,0,0,0,0,0,0,0,0,0,0,0,0,0,0,0,0,0,0,0,0,0,0,0,0,0,0,0,0,0,0,0,0,0,0,0,0,0,0,0,-4.1738,-4.1739,0,-4.184,-4.1842,-4.1843,-4.1771,-4.1768,-4.1765,-4.1762,-4.1867,-4.1873,-4.1879,0,0,0,0,0,0,0,0,0,0,0,0,0,-4.1478,-4.1484,-4.1737,-4.1739,-4.174,-4.184,-4.1842,-4.1843,-4.1772,-4.1768,-4.1764,-4.176,-4.1865,-4.1872,-4.1879,0,0,0,0,0,0,0,0,0,0,0,0,0,-4.1587,-4.1485,-4.1737,-4.1717,-4.1716,-4.184,-4.1842,-4.1843,-4.1773,-4.1768,-4.1763,-4.1759,-4.1863,-4.1872,-4.188,-4.203,0,0,-4.1907,-4.1911,0,0,0,0,0,0,0,0,-4.1581,-4.1597,-4.1718,-4.1718,-4.1718,-4.1788,-4.1789,-4.1906,-4.1774,-4.1751,-4.1762,-4.1756,-4.1845,-4.1855,-4.1885,-4.2035,-4.204,-4.1908,-4.1913,-4.1917,-4.1919,0,0,0,0,0,0,0,-4.1574,-4.1592,-4.1778,-4.172,-4.172,-4.1702,-4.1712,-4.1811,-4.1824,-4.1753,-4.1748,-4.1761,-4.1844,-4.1876,-4.1887,-4.2041,-4.1907,-4.1915,-4.192,-4.1924,-4.2317,-4.2322,0,0,0,0,0,0,-4.1568,-4.1586,-4.1775,-4.1781,-4.1636,-4.171,-4.1722,-4.177,-4.1822,-4.1826,-4.1765,-4.1757,-4.1864,-4.1876,-4.189,-4.2066,-4.1916,-4.1925,-4.193,-4.2312,-4.2318,-4.2324,0,0,0,0,0,0,-4.1563,-4.1586,-4.1771,-4.1682,-4.1705,-4.172,-4.1775,-4.1775,-4.1807,-4.1832,-4.1834,-4.1796,-4.1861,-4.1878,-4.1995,-4.2069,-4.1929,-4.1936,-4.2306,-4.2314,-4.2321,-4.2422,0,0,0,0,0,0,-4.1556,-4.1584,-4.1641,-4.1684,-4.171,-4.1875,-4.178,-4.178,-4.1823,-4.1813,-4.1861,-4.1865,-4.1858,-4.1983,-4.2004,-4.2078,-4.1943,-4.2299,-4.2309,-4.2319,-4.2412,-4.2432,-4.245,0,0,0,0,0,-4.1547,-4.1666,-4.1645,-4.1668,-4.1782,-4.1879,-4.1894,-4.1884,-4.1829,-4.1886,-4.1902,-4.1863,-4.2058,-4.1995,-4.2019,-4.2097,-4.2294,-4.2306,-4.2318,-4.2404,-4.2428,-4.2449,0,0,0,0,0,0,-4.1632,-4.1672,-4.1648,-4.1785,-4.1829,-4.1867,-4.1939,-4.1911,-4.1971,-4.196,-4.1945,-4.1957,-4.2079,-4.21,-4.2029,-4.2244,-4.2167,-4.2184,-4.2225,-4.2248,-4.2267,-4.2258,-4.195,0,0,0,0,0,-4.1667,-4.1743,-4.1774,-4.1892,-4.1915,-4.1924,-4.1966,-4.1954,-4.1999,-4.2017,-4.2041,-4.2087,-4.2157,-4.2205,-4.2272,-4.2416,-4.2424,-4.2481,-4.25,-4.2515,-4.2529,-4.2604,-4.2629,-4.2362,-4.2362,-4.2362,0,0,-4.174,-4.1771,-4.182,-4.191,-4.1942,-4.202,-4.194,-4.2026,-4.2084,-4.2031,-4.2142,-4.2162,-4.2211,-4.2341,-4.24,-4.2363,-4.2605,-4.253,-4.2542,-4.2548,-4.2619,-4.2644,-4.2666,-4.237,-4.2369,-4.2368,0,0,-4.1911,-4.1944,-4.2044,-4.2079,-4.2129,-4.2134,-4.2158,-4.22,-4.2211,-4.2322,-4.2283,-4.2352,-4.2476,-4.2511,-4.2546,-4.273,-4.2696,-4.2753,-4.285,-4.2923,-4.2944,-4.2962,-4.3025,-4.3049,-4.2767,-4.2768,-4.2768,0,-4.1995,-4.2111,-4.21,-4.2189,-4.2228,-4.2184,-4.2285,-4.2319,-4.2389,-4.2417,-4.2375,-4.2527,-4.2558,-4.2694,-4.2739,-4.277,-4.2796,-4.2746,-4.2942,-4.2961,-4.2978,-4.3037,-4.3061,-4.2774,-4.2773,-4.2773,-4.2772,0,-4.221,-4.2292,-4.2367,-4.2435,-4.2483,-4.2578,-4.258,-4.2631,-4.2615,-4.2624,-4.2738,-4.2773,-4.2844,-4.2877,-4.2863,-4.3012,-4.2986,-4.2944,-4.2866,-4.3009,-4.3065,-4.3088,-4.2783,-4.2781,-4.2779,-4.2777,0,0,-4.2437,-4.2497,-4.2524,-4.2553,-4.2606,-4.2668,-4.2761,-4.2831,-4.2873,-4.2924,-4.2999,-4.3104,-4.3064,-4.3104,-4.3094,-4.3159,-4.3299,-4.3107,-4.3108,-4.3139,-4.3461,-4.3491,-4.3518,-4.3278,-4.3282,-4.3286,-4.3456,0,-4.2609,-4.2769,-4.2761,-4.2911,-4.2984,-4.2943,-4.3023,-4.3064,-4.3075,-4.3139,-4.3151,-4.3225,-4.3168,-4.3191,-4.3254,-4.3269,-4.3363,-4.3257,-4.3346,-4.3349,-4.3331,-4.3547,-4.3579,-4.3738,-4.3478,-4.3482,-4.3485,0,-4.2831,-4.2887,-4.3044,-4.3083,-4.3114,-4.3186,-4.3248,-4.3311,-4.3355,-4.3358,-4.3402,-4.3381,-4.3474,-4.3396,-4.3522,-4.345,-4.3486,-4.3499,-4.3505,-4.3511,-4.3423,-4.3555,-4.3789,-4.3811,-4.3519,-4.3517,-4.3514,0,-4.2976,-4.3092,-4.3199,-4.3226,-4.3276,-4.3327,-4.335,-4.339,-4.3432,-4.3487,-4.3514,-4.358,-4.3615,-4.3666,-4.3663,-4.3608,-4.379,-4.3713,-4.3794,-4.3794,-4.3831,-4.3828,-4.4071,-4.3861,-4.386,-4.386,-4.3859,0,-4.3167,-4.3263,-4.3265,-4.3331,-4.3438,-4.3428,-4.3534,-4.3552,-4.3587,-4.3655,-4.3626,-4.369,-4.3684,-4.3749,-4.3748,-4.385,-4.3868,-4.3872,-4.3869,-4.3872,-4.3871,-4.3894,-4.3881,-4.3866,-4.3865,-4.3864,-4.3863,0,-4.3346,-4.3351,-4.3466,-4.3503,-4.3515,-4.3592,-4.3623,-4.3685,-4.3694,-4.3781,-4.38,-4.3814,-4.3889,-4.3892,-4.3979,-4.3977,-4.4102,-4.4089,-4.4086,-4.4082,-4.4161,-4.4153,-4.4424,-4.4458,-4.4229,-4.4231,-4.4233,0,-4.3465,-4.3539,-4.3584,-4.3627,-4.3653,-4.3723,-4.3766,-4.3759,-4.3804,-4.386,-4.3915,-4.3987,-4.4044,-4.4166,-4.4183,-4.4248,-4.4235,-4.4326,-4.4244,-4.4244,-4.4232,-4.4226,-4.4232,-4.434,-4.4343,-4.4345,-4.4347,0,-4.3676,-4.3675,-4.3737,-4.38,-4.3852,-4.3901,-4.3947,-4.3985,-4.3983,-4.4036,-4.4111,-4.4155,-4.4243,-4.4314,-4.4378,-4.4401,-4.4373,-4.4372,-4.4394,-4.4396,-4.439,-4.4391,-4.4125,-4.4365,-4.4363,-4.4362,-4.4361,-4.436,-4.3827,-4.3889,-4.393,-4.3999,-4.4033,-4.4077,-4.4136,-4.4152,-4.4215,-4.4285,-4.4278,-4.4362,-4.4403,-4.4486,-4.4514,-4.4579,-4.4548,-4.458,-4.4587,-4.4594,-4.4601,-4.4382,-4.4591,-4.459,-4.459,-4.459,-4.4589,0,-4.4033,-4.4057,-4.4121,-4.4186,-4.4241,-4.4211,-4.426,-4.4307,-4.4381,-4.4422,-4.4479,-4.4565,-4.4633,-4.4656,-4.4723,-4.477,-4.4759,-4.4787,-4.4782,-4.4787,-4.4627,-4.46,-4.4795,-4.4795,-4.4795,-4.4795,-4.4795,-4.4795,-4.4146,-4.4248,-4.4252,-4.4371,-4.4394,-4.4475,-4.4505,-4.4545,-4.4577,-4.4675,-4.4731,-4.4746,-4.4779,-4.4848,-4.4909,-4.4914,-4.4938,-4.4972,-4.4971,-4.482,-4.4799,-4.4779,-4.4753,-4.4978,-4.4978,-4.5125,-4.5127,-4.5128]},{"header":{"parameterUnit":"m.s-1","parameterCategory":1,"la1":30.2991,"la2":30.254,"lo1":-89.0895,"lo2":-89.0444,"dy":0.0017,"dx":0.0017,"nx":28,"ny":28,"refTime":"2023-03-19T21:00:00:Z","depth":0,"parameterNumber":3,"parameterNumberName":"V-component_of_WINDS"},"data":[0,0,0,0,0,0,0,0,0,0,0,0,0,0,0,0,0,0,0,0,0,0,0,0,0,0,0,0,0,0,0,0,0,0,0,0,0,0,0,0,0,0,0,0,0,0,0,0,0,0,0,0,0,0,0,0,0,0,-1.8974,-1.8974,0,-1.9031,-1.9032,-1.9033,-1.9025,-1.9024,-1.9023,-1.9022,-1.9082,-1.9084,-1.9086,0,0,0,0,0,0,0,0,0,0,0,0,0,-1.8856,-1.8858,-1.8973,-1.8974,-1.8975,-1.9031,-1.9032,-1.9033,-1.9025,-1.9024,-1.9023,-1.9022,-1.9081,-1.9084,-1.9087,0,0,0,0,0,0,0,0,0,0,0,0,0,-1.891,-1.8859,-1.8973,-1.8978,-1.8979,-1.9031,-1.9032,-1.9033,-1.9025,-1.9024,-1.9023,-1.9021,-1.908,-1.9083,-1.9087,-1.9138,0,0,-1.9098,-1.91,0,0,0,0,0,0,0,0,-1.8907,-1.8914,-1.8977,-1.8978,-1.8979,-1.902,-1.9012,-1.9068,-1.9026,-1.9008,-1.9022,-1.9021,-1.9062,-1.9067,-1.9081,-1.9141,-1.9144,-1.9099,-1.9101,-1.9103,-1.9104,0,0,0,0,0,0,0,-1.8903,-1.8911,-1.8996,-1.8977,-1.8979,-1.8977,-1.8983,-1.9023,-1.9042,-1.9009,-1.9009,-1.9016,-1.9062,-1.9078,-1.9082,-1.9145,-1.9099,-1.9102,-1.9104,-1.9106,-1.9248,-1.925,0,0,0,0,0,0,-1.8898,-1.8908,-1.8995,-1.8998,-1.8938,-1.898,-1.8987,-1.9008,-1.9042,-1.9046,-1.9017,-1.9015,-1.9072,-1.9078,-1.9085,-1.9146,-1.9102,-1.9106,-1.9108,-1.9247,-1.9249,-1.925,0,0,0,0,0,0,-1.8896,-1.8906,-1.8992,-1.8953,-1.8964,-1.8984,-1.9007,-1.901,-1.9025,-1.9048,-1.9051,-1.9029,-1.9071,-1.9079,-1.9125,-1.9148,-1.9108,-1.9111,-1.9245,-1.9247,-1.9249,-1.9269,0,0,0,0,0,0,-1.8892,-1.8905,-1.8925,-1.8954,-1.8966,-1.9032,-1.9009,-1.9012,-1.9031,-1.903,-1.906,-1.9063,-1.9071,-1.9119,-1.9128,-1.9152,-1.9114,-1.9243,-1.9246,-1.9249,-1.9266,-1.9272,-1.9276,0,0,0,0,0,-1.8888,-1.8928,-1.8926,-1.8936,-1.8991,-1.9033,-1.904,-1.9048,-1.9033,-1.9053,-1.9067,-1.9062,-1.9144,-1.9124,-1.9134,-1.9159,-1.9241,-1.9245,-1.9248,-1.9264,-1.9271,-1.9276,0,0,0,0,0,0,-1.8902,-1.8932,-1.893,-1.8981,-1.9004,-1.9032,-1.9057,-1.9055,-1.9083,-1.908,-1.9088,-1.9095,-1.9141,-1.9155,-1.9132,-1.921,-1.9191,-1.9196,-1.9199,-1.9205,-1.921,-1.9205,-1.9117,0,0,0,0,0,-1.8911,-1.8942,-1.8967,-1.9009,-1.9021,-1.9037,-1.9056,-1.9059,-1.9084,-1.9094,-1.9112,-1.9136,-1.9167,-1.9187,-1.9217,-1.9269,-1.9274,-1.9291,-1.9296,-1.93,-1.9304,-1.9331,-1.9338,-1.9262,-1.9262,-1.9262,0,0,-1.893,-1.895,-1.8969,-1.9013,-1.9031,-1.9063,-1.9046,-1.908,-1.9104,-1.9099,-1.9143,-1.9157,-1.9184,-1.9233,-1.9255,-1.9246,-1.9327,-1.9304,-1.9307,-1.931,-1.9336,-1.9343,-1.9349,-1.9264,-1.9264,-1.9263,0,0,-1.898,-1.8999,-1.9036,-1.9055,-1.9083,-1.9093,-1.9102,-1.913,-1.9139,-1.9182,-1.9179,-1.9208,-1.9261,-1.928,-1.9297,-1.9354,-1.935,-1.9364,-1.9389,-1.9415,-1.9421,-1.9427,-1.9446,-1.9453,-1.9368,-1.9368,-1.9368,0,-1.8999,-1.9047,-1.9055,-1.909,-1.9108,-1.9106,-1.9142,-1.9161,-1.9197,-1.921,-1.92,-1.9266,-1.9284,-1.9336,-1.935,-1.9365,-1.9374,-1.936,-1.942,-1.9425,-1.9431,-1.9449,-1.9456,-1.937,-1.937,-1.9369,-1.9369,0,-1.9069,-1.9102,-1.9129,-1.9164,-1.9186,-1.9221,-1.9234,-1.9255,-1.9257,-1.9268,-1.9312,-1.9334,-1.9368,-1.9381,-1.9384,-1.9433,-1.9427,-1.9418,-1.9398,-1.9439,-1.9456,-1.9463,-1.9372,-1.9371,-1.9371,-1.9371,0,0,-1.9129,-1.9168,-1.9177,-1.9192,-1.9223,-1.9249,-1.9284,-1.9317,-1.9334,-1.936,-1.9389,-1.9434,-1.9426,-1.9445,-1.945,-1.9473,-1.9515,-1.9462,-1.9462,-1.9469,-1.957,-1.9575,-1.9583,-1.9513,-1.9514,-1.9515,-1.9567,0,-1.9181,-1.9243,-1.9251,-1.9306,-1.9336,-1.9334,-1.9364,-1.9387,-1.9398,-1.9425,-1.9438,-1.9469,-1.9457,-1.9468,-1.9491,-1.9505,-1.9535,-1.9502,-1.9539,-1.9541,-1.9531,-1.9592,-1.9598,-1.9645,-1.9574,-1.9575,-1.9576,0,-1.925,-1.9276,-1.9334,-1.936,-1.9373,-1.94,-1.943,-1.9457,-1.9482,-1.9488,-1.9509,-1.9511,-1.9547,-1.9527,-1.9576,-1.9553,-1.9569,-1.9578,-1.958,-1.9583,-1.956,-1.9595,-1.9661,-1.9667,-1.9587,-1.9586,-1.9585,0,-1.9285,-1.9336,-1.9377,-1.9391,-1.9422,-1.9441,-1.9455,-1.9479,-1.9498,-1.9524,-1.9536,-1.9567,-1.9583,-1.9607,-1.9616,-1.9601,-1.9664,-1.9645,-1.967,-1.967,-1.9682,-1.9681,-1.975,-1.9695,-1.9695,-1.9695,-1.9695,0,-1.9342,-1.9377,-1.9393,-1.9418,-1.9457,-1.9466,-1.9504,-1.9518,-1.9539,-1.9566,-1.9567,-1.9592,-1.9604,-1.9631,-1.9639,-1.9678,-1.9686,-1.9691,-1.9693,-1.969,-1.9689,-1.97,-1.9696,-1.9697,-1.9696,-1.9696,-1.9696,0,-1.9388,-1.94,-1.9444,-1.9471,-1.9478,-1.9506,-1.9528,-1.9552,-1.9563,-1.9597,-1.9606,-1.9623,-1.9655,-1.9668,-1.9707,-1.9712,-1.9757,-1.9756,-1.9748,-1.9748,-1.9772,-1.9769,-1.9849,-1.9859,-1.9798,-1.9799,-1.9799,0,-1.9422,-1.9449,-1.9478,-1.9496,-1.951,-1.954,-1.9559,-1.9569,-1.9588,-1.9618,-1.9638,-1.967,-1.9696,-1.9748,-1.9764,-1.9794,-1.9793,-1.9819,-1.9797,-1.9794,-1.9792,-1.9789,-1.9791,-1.9822,-1.9823,-1.9824,-1.9824,0,-1.9481,-1.9486,-1.9513,-1.9543,-1.9565,-1.9589,-1.9612,-1.9627,-1.964,-1.9662,-1.9695,-1.9715,-1.9755,-1.9786,-1.9817,-1.9831,-1.9829,-1.9831,-1.9838,-1.9835,-1.9829,-1.9831,-1.9757,-1.9829,-1.9828,-1.9828,-1.9828,-1.9827,-1.9521,-1.9544,-1.9568,-1.9598,-1.9617,-1.9638,-1.9661,-1.9675,-1.9703,-1.9735,-1.974,-1.9774,-1.9798,-1.9839,-1.9855,-1.9882,-1.9875,-1.9885,-1.9888,-1.989,-1.9891,-1.9825,-1.9888,-1.9888,-1.9887,-1.9887,-1.9887,0,-1.9579,-1.9594,-1.9622,-1.9653,-1.9677,-1.9674,-1.9699,-1.9719,-1.975,-1.9772,-1.9797,-1.9834,-1.9864,-1.9883,-1.9913,-1.9931,-1.9931,-1.9939,-1.9937,-1.994,-1.9896,-1.9886,-1.9938,-1.9938,-1.9938,-1.9938,-1.9938,-1.9938,-1.9611,-1.965,-1.9658,-1.9705,-1.972,-1.9754,-1.9768,-1.9788,-1.9805,-1.9847,-1.9872,-1.9884,-1.9904,-1.9936,-1.9963,-1.9968,-1.9979,-1.9986,-1.999,-1.9949,-1.9943,-1.9938,-1.9929,-1.9989,-1.9989,-2.0032,-2.0032,-2.0033]}]]